sat.trackr.live / text

‹ back to catalog

STARLINK-31765

NORAD 59604 · 2024-080D

PAYLOAD ACTIVE UNKNOWN

§ Identity

Operator
Country
US
Launch date
2024-04-28
Launch site
AFETR
Launch vehicle
Mass (kg)
RCS (m²)

Purposes: comms

External: N2YO · Heavens-Above · Gunter

§ Orbital elements

Epoch: 2026-05-25T04:34:43.896576Z

Period
94.27 min
Inclination
43.0002°
Eccentricity
0.0001216
Mean motion
15.27568500 rev/d
Perigee alt
482.2 km
Apogee alt
483.9 km
Semi-major
6,861.2 km
B*
-2.3227e-5
RAAN
322.3141°
Arg perigee
272.8534°
Mean anomaly
87.2179°
Rev number
11,627

§ Raw data

STARLINK-317651 59604U 24080D   26145.19078584 -.00000901  00000+0 -23227-4 0  99992 59604  43.0002 322.3141 0001216 272.8534  87.2179 15.27568500116272

JSON: /api/v1/satellites/59604 · /tle

For live sub-satellite position, see the globe view (requires WebGL).

§ Visibility from observer

Set your observer location to see the next 7 days of passes ≥ 10°. The values pass through the URL so the page stays shareable.

No JS? Fill the form by hand. The geolocation button needs JavaScript.